Regional Weather Roundup
Issued by NWS

Home | Current Version | Previous Version | Text Only | Print | Product List | Glossary On
Versions: 1 2 3 4 5 6 7 8 9 10 11 12 13 14 15 16 17 18 19 20 21 22 23 24 25 26 27 28 29 30 31 32 33 34 35 36 37 38 39 40 41 42 43 44 45 46 47 48 49 50
000
ASUS45 KCYS 030210
RWRWY

WYOMING REGIONAL WEATHER ROUNDUP
NATIONAL WEATHER SERVICE CHEYENNE WY
800 PM MDT THU JUL 02 2015

NOTE:  "FAIR" INDICATES FEW OR NO CLOUDS BELOW 12,000 FEET
WITH NO SIGNIFICANT WEATHER AND/OR OBSTRUCTIONS TO VISIBILITY.

WYZ001-030300-
YELLOWSTONE NATIONAL PARK

CITY           SKY/WX    TMP DP  RH WIND       PRES   REMARKS
LK YELLOWSTONE   N/A     73  37  27 VRB3      30.31R
W YELLOWSTONE  NOT AVBL

$$
WYZ002>013-054>058-071-098>099-030300-
NORTHERN WYOMING

CITY           SKY/WX    TMP DP  RH WIND       PRES   REMARKS
JACKSON        SUNNY     79  37  22 W8        30.17S
CODY           MOCLDY    77  50  38 N12       30.16R
GREYBULL       FAIR      85  44  23 NW20      30.03R
WORLAND        FAIR      82  56  40 NE6       30.04R
SHERIDAN       FAIR      77  55  46 NW8       30.11R
BUFFALO        MOCLDY    71  55  56 NW6       30.18R
GILLETTE       FAIR      73  54  51 NE7       30.13R
HULETT         FAIR      72  55  56 CALM      30.13S
NEWCASTLE      FAIR      72  50  46 N7        30.13R

$$
WYZ014>020-022>026-101>103-030300-
CENTRAL WYOMING

CITY           SKY/WX    TMP DP  RH WIND       PRES   REMARKS
BIG PINEY      FAIR      81  38  21 N15       30.20R
PINEDALE       FAIR      79  37  22 MISG      30.21S
DUBOIS         FAIR      70  46  43 SE14G23   30.26R
LANDER         FAIR      76  54  46 SW10      30.15R
RIVERTON       FAIR      81  49  32 E6        30.15R
CASPER         CLOUDY    75  52  44 E18G24    30.16R
DOUGLAS        MOCLDY    73  55  53 NE16      30.17R

$$
WYZ021-027>030-104>119-030300-
SOUTHERN WYOMING

CITY           SKY/WX    TMP DP  RH WIND       PRES   REMARKS
EVANSTON       FAIR      81  40  23 NW12      30.22R
KEMMERER       FAIR     N/A N/A N/A NW13      30.23S
FORT BRIDGER   CLEAR     86  30  13 NW15G21   30.22S
ROCK SPRINGS   FAIR      73  45  36 E16       30.18R
DIXON          MOCLDY    76  41  28 N26G33    30.22R
RAWLINS        MOCLDY    64  55  72 SE5       30.24S
SARATOGA       TSTM      64  52  63 W26G38    30.32R
LARAMIE        FAIR      64  49  57 SE10      30.28R
CHEYENNE       CLOUDY    69  54  58 SW9       30.23R
TORRINGTON     FAIR      76  55  48 NE12      30.10R
PINE BLUFFS    MOCLDY    72  52  49 E6        30.18R

$$


USA.gov is the U.S. government's official web portal to all federal, state and local government web resources and services.